Regional Weather Roundup
Issued by NWS Tiyan, Guam

Home | Current Version | Previous Version | Text Only | Print | Product List | Glossary On
Versions: 1 2 3 4 5 6 7 8 9 10 11 12 13 14 15 16 17 18 19 20 21 22 23 24 25 26 27
000
ASGM40 PGUM 232212
RWRGUM
WEATHER ROUNDUP FOR THE MARIANAS
NATIONAL WEATHER SERVICE TIYAN GU
800 AM GSST THU APR 24 2014

GUZ001>004-232300-
MARIANA ISLANDS-

CITY           SKY/WX    TMP DP  RH WIND       PRES   REMARKS
GUAM AIRPORT   SUNNY     82  73  74 NE8       29.89R
ANDERSEN AFB   MOSUNNY   82  73  74 E12       29.89R
ROTA AIRPORT   MOSUNNY   81  72  74 E14       29.91R
TINIAN AP      MOSUNNY   81  70  69 E12       29.89R
SAIPAN AP      MOSUNNY   82  73  74 E13       29.89R

$$




USA.gov is the U.S. government's official web portal to all federal, state and local government web resources and services.